Regional Weather Roundup
Issued by NWS Midland/Odessa, TX

Home | Current Version | Previous Version | Text Only | Print | Product List | Glossary On
Versions: 1 2 3 4 5 6 7 8 9 10 11 12 13 14 15 16 17 18 19 20 21 22 23 24 25 26 27 28 29 30 31 32 33 34 35 36 37 38 39 40 41 42 43 44 45 46 47 48 49 50
000
ASUS44 KMAF 240510
RWRMAF
MIDLAND AREA WEATHER ROUNDUP
NATIONAL WEATHER SERVICE MIDLAND TX
1100 PM CST FRI FEB 23 2018

...IN SOUTHWEST TEXAS AND SOUTHEAST NEW MEXICO...

CITY           SKY/WX    TMP DP  RH WIND       PRES   REMARKS
ALPINE         PTCLDY    53  30  41 SW8       30.00F
ANDREWS        FAIR      44  44 100 SE8       29.91F WCI  39
ARTESIA        CLEAR     54  12  19 S15       29.87F
BIG SPRING     CLOUDY    49  49  99 SE13      29.96F
CARLSBAD       CLEAR     49  24  37 W12       29.88R
DRYDEN           N/A     56  53  90 E13       29.96F
FORT STOCKTON  CLEAR     54  46  74 S20       29.89F
GUAD PASS      CLEAR     53   9  17 SW16      29.97S
HOBBS          CLEAR     43  39  87 SE7       29.89F WCI  39
LAMESA         LGT RAIN  46  46 100 E18       29.93F VSB 1/2 WCI  39
MARFA          CLEAR     38  11  32 S6        29.99S WCI  33
MIDLAND AIRPK    N/A     52  49  90 SE16G23   29.93S FOG
MIDLAND INTL   MOCLDY    51  48  89 S20       29.93S
ODESSA         PTCLDY    50  48  93 S15       29.92F
PECOS          CLEAR     52  41  68 E5        29.89R
PRESIDIO       FAIR      62  23  22 N7        29.91R
SEMINOLE       CLEAR     43  43  98 SE6       29.91F FOG     WCI  40
SNYDER         SNOW      42  42 100 E8        29.97F VSB 1/2 WCI  37
WINK           CLEAR     53  46  77 SE14      29.88S
$$
...OTHER STATIONS IN TEXAS...

CITY           SKY/WX    TMP DP  RH WIND       PRES   REMARKS
ABILENE        CLOUDY    41  40  96 N3        30.01F
AMARILLO       CLOUDY    33  32  96 SE16      29.91F FOG     WCI  23
AUSTIN         CLOUDY    60  60 100 CALM      30.00F
BROWNSVILLE    CLOUDY    74  72  93 S22G29    29.97S
CORPUS CHRISTI CLOUDY    71  71 100 SE22G30   29.97F FOG
DALLAS FTW     CLOUDY    47  45  93 NW9       30.02F
DEL RIO        CLOUDY    59  59 100 S10       29.97S
EL PASO        CLEAR     60   4  10 W25G37    29.92S
HOUSTON INT    CLOUDY    72  70  93 SE8       30.03F
LUBBOCK        DRZL/FOG  40  40 100 SE10      29.92F VSB 1/8 WCI  33
SAN ANGELO     CLOUDY    50  47  89 E6        29.97F FOG
SAN ANTONIO    CLOUDY    67  64  90 SE6       29.99F
WACO           FOG       54  53  97 N6        30.02F VSB 1/4
WICHITA FALLS  DRIZZLE   33  33 100 NE9       30.07F FOG     WCI  25
$$
...OTHER LOCATIONS IN NEW MEXICO...

CITY           SKY/WX    TMP DP  RH WIND       PRES   REMARKS
ALAMOGORDO     CLEAR     50  14  23 S14       29.92R
ALBUQUERQUE    MOCLDY    38  18  44 N16G22    29.93R WCI  29
CANNON AFB     CLEAR     44  26  50 SE13G22   29.88F WCI  37
CLOVIS         CLEAR     41  38  89 S16       29.89S WCI  33
HOLLOMAN AFB   CLEAR     46  14  27 SE9       29.92S
ROSWELL        CLEAR     47  12  24 S14       29.86S
RUIDOSO        CLEAR     43   5  21 SW23G29   29.93  WCI  33
SANTA FE       PTCLDY    32  13  45 S5        29.87R WCI  27
TRUTH OR CONSE CLEAR     49  12  22 VRB5      29.89R
TUCUMCARI      CLEAR     44   7  21 SW12      29.80F WCI  38
$$




USA.gov is the U.S. government's official web portal to all federal, state and local government web resources and services.